sat.trackr.live / text

‹ back to catalog

STARLINK-32295

NORAD 62147 · 2024-224J

PAYLOAD ACTIVE UNKNOWN

§ Identity

Operator
Country
US
Launch date
2024-11-30
Launch site
AFETR
Launch vehicle
Mass (kg)
RCS (m²)

Purposes: comms

External: N2YO · Heavens-Above · Gunter

§ Orbital elements

Epoch: 2026-09-21T00:59:52.286496Z

Period
94.27 min
Inclination
43.0037°
Eccentricity
0.0001042
Mean motion
15.27585896 rev/d
Perigee alt
482.3 km
Apogee alt
483.7 km
Semi-major
6,861.2 km
B*
3.3115e-4
RAAN
135.1072°
Arg perigee
277.7764°
Mean anomaly
82.2969°
Rev number
10,224

§ Raw data

STARLINK-322951 62147U 24224J   26264.04157739  .00008863  00000+0  33115-3 0  99902 62147  43.0037 135.1072 0001042 277.7764  82.2969 15.27585896102246

JSON: /api/v1/satellites/62147 · /tle

For live sub-satellite position, see the globe view (requires WebGL).

§ Visibility from observer

Set your observer location to see the next 7 days of passes ≥ 10°. The values pass through the URL so the page stays shareable.

No JS? Fill the form by hand. The geolocation button needs JavaScript.